Vernal, UT

12:50 PM MST on February 23, 2017 (GMT -0700)
Vernal

Weather History for KVEL - December, 2012

Change the Weather History Date:

Sunday, December 16, 2012

  Actual Average Record
Temperature  
Mean Temperature 26 °F 21 °F  
Max Temperature 33 °F 30 °F 49 °F (1980)
Min Temperature 18 °F 13 °F -23 °F (1931)
Degree Days  
Heating Degree Days 39 44  
Month to date heating degree days 536 664  
Since 1 July heating degree days 1884 2295  
Cooling Degree Days 0 0  
Month to date cooling degree days 0 0  
Year to date cooling degree days 810 511  
Moisture  
Dew Point 21 °F    
Average Humidity 85    
Maximum Humidity 100    
Minimum Humidity 69    
Precipitation  
Precipitation T in 0.02 in 0.63 in (2016)
Month to date precipitation 0.19 0.31  
Year to date precipitation 4.18 8.98  
Sea Level Pressure  
Sea Level Pressure 29.89 in    
Wind  
Wind Speed 1 mph (WNW)    
Max Wind Speed 7 mph    
Max Gust Speed 8 mph    
Visibility 6 miles    
Events Fog , Snow    
T = Trace of Precipitation, MM = Missing Value Source: NWS Daily Summary

Daily Weather History Graph

Daily Weather History Graph

Search for Another Location

Airport or City:

Trip Planner

Search our weather history database for the weather conditions in past years. The results will help you decide how hot, cold, wet, or windy it might be!

Date:

Astronomy

Dec. 16, 2012 Rise Set
Actual Time 7:35 AM MST 4:52 PM MST
Civil Twilight 7:04 AM MST 5:23 PM MST
Nautical Twilight 6:30 AM MST 5:57 PM MST
Astronomical Twilight 5:56 AM MST 6:31 PM MST
Moon 10:10 AM MST (12/16) 9:11 PM MST (12/16)
Length of Visible Light 10h 19m
Length of Day
9h 17m
Waxing Crescent, 16% of the Moon is Illuminated
Dec 16
Waxing Crescent
Dec 19
First Quarter
Dec 28
Full
Jan 4
Last Quarter
Jan 11
New

Hourly Weather History & Observations

Time (MST) Temp. Windchill Dew Point Humidity Pressure Visibility Wind Dir Wind Speed Gust Speed Precip Events Conditions
12:30 AM 19.4 °F 12.8 °F 17.6 °F 93% 29.78 in 1.2 mi South 4.6 mph - N/A   Overcast
12:37 AM 21.2 °F 13.6 °F 19.4 °F 93% 29.78 in 0.2 mi South 5.8 mph - N/A Fog Light Freezing Fog
12:53 AM 21.9 °F - 21.0 °F 96% 29.86 in 0.2 mi Calm Calm - N/A Fog Light Freezing Fog
1:51 AM 23.0 °F - 21.2 °F 93% 29.78 in 1.0 mi Calm Calm - N/A   Overcast
1:53 AM 23.0 °F - 21.9 °F 96% 29.86 in 1.0 mi Calm Calm - N/A   Overcast
2:21 AM 23.0 °F 18.4 °F 21.2 °F 93% 29.79 in 2.0 mi ENE 3.5 mph - N/A   Overcast
2:29 AM 21.2 °F - 21.2 °F 100% 29.79 in 8.0 mi Calm Calm - N/A   Overcast
2:36 AM 21.2 °F - 21.2 °F 100% 29.79 in 9.0 mi Calm Calm - N/A   Overcast
2:47 AM 23.0 °F - 21.2 °F 93% 29.79 in 2.5 mi Calm Calm - N/A   Overcast
2:51 AM 23.0 °F - 21.2 °F 93% 29.79 in 0.8 mi Calm Calm - N/A   Overcast
2:53 AM 23.0 °F - 21.9 °F 96% 29.86 in 0.5 mi Calm Calm - N/A Fog Light Freezing Fog
3:53 AM 24.1 °F - 21.9 °F 91% 29.86 in 0.5 mi Calm Calm - N/A Fog Light Freezing Fog
4:24 AM 24.8 °F - 21.2 °F 86% 29.79 in 1.8 mi Calm Calm - N/A   Overcast
4:27 AM 24.8 °F - 21.2 °F 86% 29.79 in 3.0 mi Calm Calm - N/A   Overcast
4:53 AM 23.0 °F 18.4 °F 19.9 °F 88% 29.86 in 10.0 mi WNW 3.5 mph - N/A   Overcast
5:23 AM 23.0 °F 18.4 °F 21.2 °F 93% 29.79 in 10.0 mi West 3.5 mph - N/A   Overcast
6:23 AM 23.0 °F - 19.4 °F 86% 29.81 in 10.0 mi Calm Calm - N/A   Overcast
6:41 AM 23.0 °F - 21.2 °F 93% 29.81 in 2.0 mi Calm Calm - 0.00 in Snow Light Snow
6:53 AM 23.0 °F - 21.0 °F 92% 29.91 in 3.0 mi Calm Calm - 0.00 in Snow Light Snow
7:53 AM 23.0 °F 18.4 °F 19.9 °F 88% 29.93 in 5.0 mi WNW 3.5 mph - 0.00 in Snow Light Snow
8:21 AM 24.8 °F - 21.2 °F 86% 29.84 in 4.0 mi Calm Calm - 0.00 in Snow Light Snow
8:31 AM 24.8 °F - 21.2 °F 86% 29.84 in 2.0 mi Calm Calm - 0.00 in Snow Light Snow
8:42 AM 24.8 °F - 21.2 °F 86% 29.85 in 6.0 mi Calm Calm - 0.00 in Snow Light Snow
8:53 AM 24.1 °F - 21.9 °F 91% 29.94 in 6.0 mi Calm Calm - 0.00 in Snow Light Snow
9:53 AM 25.0 °F - 23.0 °F 92% 29.96 in 10.0 mi Calm Calm - 0.00 in   Overcast
10:53 AM 28.0 °F - 23.0 °F 81% 29.97 in 10.0 mi Calm Calm - N/A   Overcast
11:20 AM 26.6 °F - 23.0 °F 86% 29.87 in 10.0 mi Calm Calm - N/A   Scattered Clouds
11:53 AM 28.0 °F - 23.0 °F 81% 29.96 in 10.0 mi Calm Calm - N/A   Partly Cloudy
12:53 PM 33.1 °F - 24.1 °F 70% 29.93 in 10.0 mi Calm Calm - N/A   Mostly Cloudy
1:53 PM 32.0 °F 28.7 °F 24.1 °F 73% 29.93 in 10.0 mi ENE 3.5 mph - N/A   Partly Cloudy
2:53 PM 30.9 °F 27.5 °F 23.0 °F 72% 29.94 in 10.0 mi East 3.5 mph - N/A   Clear
3:53 PM 30.9 °F - 23.0 °F 72% 29.93 in 10.0 mi Calm Calm - N/A   Clear
4:53 PM 28.0 °F - 21.9 °F 78% 29.96 in 10.0 mi Calm Calm - N/A   Clear
5:53 PM 26.1 °F 20.5 °F 19.9 °F 78% 29.99 in 10.0 mi WNW 4.6 mph - N/A   Clear
6:53 PM 23.0 °F 18.4 °F 19.0 °F 85% 30.01 in 10.0 mi West 3.5 mph - N/A   Clear
7:53 PM 19.9 °F 14.9 °F 16.0 °F 85% 30.04 in 10.0 mi WNW 3.5 mph - N/A   Clear
8:53 PM 19.9 °F - 16.0 °F 85% 30.04 in 10.0 mi Calm Calm - N/A   Clear
9:53 PM 19.9 °F 14.9 °F 16.0 °F 85% 30.03 in 10.0 mi WNW 3.5 mph - N/A   Clear
10:53 PM 23.0 °F - 18.0 °F 81% 30.01 in 10.0 mi Calm Calm - N/A   Overcast
11:53 PM 24.1 °F - 19.0 °F 81% 30.00 in 10.0 mi Calm Calm - N/A   Scattered Clouds